Time,TemperatureF,DewpointF,PressureIn,WindDirection,WindDirectionDegrees,WindSpeedMPH,WindSpeedGustMPH,Humidity,HourlyPrecipIn,Conditions,Clouds,dailyrainin,SoftwareType,DateUTC
2013-02-17 00:04:00,43.5,15.6,29.51,SSW,198,0.0,0.0,32,0.00,,,0.00,meteohub,2013-02-17 06:04:00,
2013-02-17 00:09:00,43.3,15.4,29.51,SSW,197,0.0,0.0,32,0.00,,,0.00,meteohub,2013-02-17 06:09:00,
2013-02-17 00:14:00,43.0,15.8,29.51,SSW,197,0.0,0.0,33,0.00,,,0.00,meteohub,2013-02-17 06:14:00,
2013-02-17 00:19:00,42.6,16.2,29.51,SSW,197,0.0,0.0,34,0.00,,,0.00,meteohub,2013-02-17 06:19:00,
2013-02-17 00:24:00,42.4,16.7,29.51,SSW,198,0.0,0.0,35,0.00,,,0.00,meteohub,2013-02-17 06:24:00,
2013-02-17 00:29:00,42.4,17.4,29.51,SSW,197,0.0,0.0,36,0.00,,,0.00,meteohub,2013-02-17 06:29:00,
2013-02-17 00:34:00,42.1,17.6,29.51,SSW,197,0.0,0.0,37,0.00,,,0.00,meteohub,2013-02-17 06:34:00,
2013-02-17 00:39:00,41.9,17.6,29.51,SSW,197,0.0,0.0,37,0.00,,,0.00,meteohub,2013-02-17 06:39:00,
2013-02-17 00:44:00,41.7,18.0,29.51,SSW,197,0.0,0.0,38,0.00,,,0.00,meteohub,2013-02-17 06:44:00,
2013-02-17 00:49:00,41.9,18.1,29.51,SSW,198,0.0,0.0,38,0.00,,,0.00,meteohub,2013-02-17 06:49:00,
2013-02-17 00:54:00,41.9,18.1,29.51,SSW,197,0.0,0.0,38,0.00,,,0.00,meteohub,2013-02-17 06:54:00,
2013-02-17 00:59:00,41.9,18.1,29.48,SSW,197,0.0,0.0,38,0.00,,,0.00,meteohub,2013-02-17 06:59:00,
2013-02-17 01:04:00,42.1,18.3,29.48,SSW,198,0.0,0.0,38,0.00,,,0.00,meteohub,2013-02-17 07:04:00,
2013-02-17 01:09:00,42.1,18.3,29.48,SSW,197,0.0,0.0,38,0.00,,,0.00,meteohub,2013-02-17 07:09:00,
2013-02-17 01:14:00,42.1,18.3,29.48,SSW,198,0.0,0.0,38,0.00,,,0.00,meteohub,2013-02-17 07:14:00,
2013-02-17 01:20:00,41.9,18.1,29.48,SSW,198,0.0,0.0,38,0.00,,,0.00,meteohub,2013-02-17 07:20:00,
2013-02-17 01:25:00,41.7,18.0,29.48,SSW,197,0.0,0.0,38,0.00,,,0.00,meteohub,2013-02-17 07:25:00,
2013-02-17 01:30:00,41.5,17.8,29.48,SSW,197,0.0,0.0,38,0.00,,,0.00,meteohub,2013-02-17 07:30:00,
2013-02-17 01:35:00,41.4,17.6,29.48,SSW,197,0.0,0.0,38,0.00,,,0.00,meteohub,2013-02-17 07:35:00,
2013-02-17 01:40:00,41.2,17.4,29.48,SSW,197,0.0,0.0,38,0.00,,,0.00,meteohub,2013-02-17 07:40:00,
2013-02-17 01:45:00,41.0,17.4,29.48,SSW,198,0.0,0.0,38,0.00,,,0.00,meteohub,2013-02-17 07:45:00,
2013-02-17 01:50:00,40.8,17.8,29.48,SSW,197,0.0,0.0,39,0.00,,,0.00,meteohub,2013-02-17 07:50:00,
2013-02-17 01:55:00,40.6,17.6,29.48,SSW,198,0.0,0.0,39,0.00,,,0.00,meteohub,2013-02-17 07:55:00,
2013-02-17 02:00:00,40.5,17.4,29.48,SSW,197,0.0,0.0,39,0.00,,,0.00,meteohub,2013-02-17 08:00:00,
2013-02-17 02:05:00,40.1,17.8,29.48,SSW,198,0.0,0.0,40,0.00,,,0.00,meteohub,2013-02-17 08:05:00,
2013-02-17 02:10:00,39.9,17.6,29.48,SSW,197,0.0,0.0,40,0.00,,,0.00,meteohub,2013-02-17 08:10:00,
2013-02-17 02:15:00,39.7,17.4,29.48,SSW,197,0.0,0.0,40,0.00,,,0.00,meteohub,2013-02-17 08:15:00,
2013-02-17 02:20:00,39.7,17.4,29.48,SSW,197,0.0,0.0,40,0.00,,,0.00,meteohub,2013-02-17 08:20:00,
2013-02-17 02:25:00,39.7,18.0,29.48,SSW,198,0.0,0.0,41,0.00,,,0.00,meteohub,2013-02-17 08:25:00,
2013-02-17 02:30:00,40.1,18.3,29.45,SSW,197,0.0,0.0,41,0.00,,,0.00,meteohub,2013-02-17 08:30:00,
2013-02-17 02:35:00,40.3,18.5,29.45,SSW,197,0.0,0.0,41,0.00,,,0.00,meteohub,2013-02-17 08:35:00,
2013-02-17 02:41:00,40.5,18.7,29.45,SSW,197,0.0,0.0,41,0.00,,,0.00,meteohub,2013-02-17 08:41:00,
2013-02-17 02:46:00,40.6,18.9,29.45,SSW,197,0.0,0.0,41,0.00,,,0.00,meteohub,2013-02-17 08:46:00,
2013-02-17 02:51:00,40.8,18.9,29.45,SSW,198,0.0,0.0,41,0.00,,,0.00,meteohub,2013-02-17 08:51:00,
2013-02-17 02:56:00,40.8,18.9,29.45,SSW,197,0.0,0.0,41,0.00,,,0.00,meteohub,2013-02-17 08:56:00,
2013-02-17 03:01:00,40.8,18.9,29.45,SSW,197,0.0,0.0,41,0.00,,,0.00,meteohub,2013-02-17 09:01:00,
2013-02-17 03:06:00,40.8,18.9,29.45,SSW,198,0.0,0.0,41,0.00,,,0.00,meteohub,2013-02-17 09:06:00,
2013-02-17 03:11:00,40.6,18.9,29.45,SSW,197,0.0,0.0,41,0.00,,,0.00,meteohub,2013-02-17 09:11:00,
2013-02-17 03:16:00,40.5,18.7,29.45,SSW,197,0.0,0.0,41,0.00,,,0.00,meteohub,2013-02-17 09:16:00,
2013-02-17 03:21:00,40.3,19.0,29.45,SSW,198,0.0,0.0,42,0.00,,,0.00,meteohub,2013-02-17 09:21:00,
2013-02-17 03:26:00,40.3,19.0,29.45,SSW,197,0.0,0.0,42,0.00,,,0.00,meteohub,2013-02-17 09:26:00,
2013-02-17 03:31:00,40.1,18.9,29.45,SSW,197,0.0,0.0,42,0.00,,,0.00,meteohub,2013-02-17 09:31:00,
2013-02-17 03:36:00,40.1,18.9,29.45,SSW,198,0.0,0.0,42,0.00,,,0.00,meteohub,2013-02-17 09:36:00,
2013-02-17 03:41:00,40.1,19.4,29.45,SSW,197,0.0,0.0,43,0.00,,,0.00,meteohub,2013-02-17 09:41:00,
2013-02-17 03:46:00,40.1,19.4,29.45,SSW,197,0.0,0.0,43,0.00,,,0.00,meteohub,2013-02-17 09:46:00,
2013-02-17 03:51:00,40.3,19.6,29.45,SSW,197,0.0,0.0,43,0.00,,,0.00,meteohub,2013-02-17 09:51:00,
2013-02-17 03:56:00,40.1,19.4,29.45,SSW,197,0.0,0.0,43,0.00,,,0.00,meteohub,2013-02-17 09:56:00,
2013-02-17 04:01:00,39.9,19.2,29.45,SSW,198,0.0,0.0,43,0.00,,,0.00,meteohub,2013-02-17 10:01:00,
2013-02-17 04:07:00,39.7,19.6,29.45,SSW,197,0.0,0.0,44,0.00,,,0.00,meteohub,2013-02-17 10:07:00,
2013-02-17 04:12:00,39.7,19.6,29.45,SSW,197,0.0,0.0,44,0.00,,,0.00,meteohub,2013-02-17 10:12:00,
2013-02-17 04:17:00,39.6,19.4,29.42,SSW,197,0.0,0.0,44,0.00,,,0.00,meteohub,2013-02-17 10:17:00,
2013-02-17 04:22:00,39.4,19.2,29.42,SSW,197,0.0,0.0,44,0.00,,,0.00,meteohub,2013-02-17 10:22:00,
2013-02-17 04:27:00,39.2,19.0,29.42,SSW,198,0.0,0.0,44,0.00,,,0.00,meteohub,2013-02-17 10:27:00,
2013-02-17 04:32:00,39.0,19.4,29.42,SSW,197,0.0,0.0,45,0.00,,,0.00,meteohub,2013-02-17 10:32:00,
2013-02-17 04:37:00,38.7,19.2,29.42,SSW,197,0.0,0.0,45,0.00,,,0.00,meteohub,2013-02-17 10:37:00,
2013-02-17 04:42:00,38.5,19.6,29.42,SSW,197,0.0,0.0,46,0.00,,,0.00,meteohub,2013-02-17 10:42:00,
2013-02-17 04:47:00,38.3,19.4,29.42,SSW,198,0.0,0.0,46,0.00,,,0.00,meteohub,2013-02-17 10:47:00,
2013-02-17 04:52:00,38.3,19.4,29.42,SSW,198,0.0,0.0,46,0.00,,,0.00,meteohub,2013-02-17 10:52:00,
2013-02-17 04:57:00,38.1,19.6,29.45,SSW,198,0.0,0.0,47,0.00,,,0.00,meteohub,2013-02-17 10:57:00,
2013-02-17 05:02:00,37.9,19.6,29.45,SSW,197,0.0,0.0,47,0.00,,,0.00,meteohub,2013-02-17 11:02:00,
2013-02-17 05:07:00,37.9,19.9,29.45,SSW,197,0.0,0.0,48,0.00,,,0.00,meteohub,2013-02-17 11:07:00,
2013-02-17 05:12:00,37.8,19.8,29.42,SSW,198,0.0,0.0,48,0.00,,,0.00,meteohub,2013-02-17 11:12:00,
2013-02-17 05:17:00,37.8,20.3,29.42,SSW,198,0.0,0.0,49,0.00,,,0.00,meteohub,2013-02-17 11:17:00,
2013-02-17 05:22:00,37.9,20.5,29.42,SSW,197,0.0,0.0,49,0.00,,,0.00,meteohub,2013-02-17 11:22:00,
2013-02-17 05:28:00,37.9,20.5,29.42,SSW,198,0.0,0.0,49,0.00,,,0.00,meteohub,2013-02-17 11:28:00,
2013-02-17 05:33:00,38.3,20.8,29.42,SSW,197,0.0,0.0,49,0.00,,,0.00,meteohub,2013-02-17 11:33:00,
2013-02-17 05:38:00,38.5,21.0,29.42,SSW,198,0.0,0.0,49,0.00,,,0.00,meteohub,2013-02-17 11:38:00,
2013-02-17 05:43:00,38.5,21.0,29.42,SSW,197,0.0,0.0,49,0.00,,,0.00,meteohub,2013-02-17 11:43:00,
2013-02-17 05:48:00,38.5,21.0,29.42,SSW,197,0.0,0.0,49,0.00,,,0.00,meteohub,2013-02-17 11:48:00,
2013-02-17 05:53:00,38.5,21.0,29.42,SSW,198,0.0,0.0,49,0.00,,,0.00,meteohub,2013-02-17 11:53:00,
2013-02-17 05:58:00,38.5,21.0,29.42,SSW,198,0.0,0.0,49,0.00,,,0.00,meteohub,2013-02-17 11:58:00,
2013-02-17 06:03:00,38.7,21.2,29.42,SSW,197,0.0,0.0,49,0.00,,,0.00,meteohub,2013-02-17 12:03:00,
2013-02-17 06:08:00,38.7,21.2,29.42,SSW,197,0.0,0.0,49,0.00,,,0.00,meteohub,2013-02-17 12:08:00,
2013-02-17 06:13:00,38.7,21.2,29.42,SSW,197,0.0,0.0,49,0.00,,,0.00,meteohub,2013-02-17 12:13:00,
2013-02-17 06:18:00,38.5,21.0,29.42,SSW,197,0.0,0.0,49,0.00,,,0.00,meteohub,2013-02-17 12:18:00,
2013-02-17 06:23:00,38.3,20.8,29.42,SSW,197,0.0,0.0,49,0.00,,,0.00,meteohub,2013-02-17 12:23:00,
2013-02-17 06:28:00,38.3,20.8,29.42,SSW,198,0.0,0.0,49,0.00,,,0.00,meteohub,2013-02-17 12:28:00,
2013-02-17 06:33:00,38.5,21.4,29.42,SSW,197,0.0,0.0,50,0.00,,,0.00,meteohub,2013-02-17 12:33:00,
2013-02-17 06:38:00,38.5,21.4,29.42,SSW,197,0.0,0.0,50,0.00,,,0.00,meteohub,2013-02-17 12:38:00,
2013-02-17 06:43:00,38.7,21.6,29.42,SSW,198,0.0,0.0,50,0.00,,,0.00,meteohub,2013-02-17 12:43:00,
2013-02-17 06:48:00,38.8,21.7,29.42,SSW,197,0.0,0.0,50,0.00,,,0.00,meteohub,2013-02-17 12:48:00,
2013-02-17 06:53:00,39.0,21.9,29.42,SSW,197,0.0,0.0,50,0.00,,,0.00,meteohub,2013-02-17 12:53:00,
2013-02-17 06:59:00,39.0,21.9,29.42,SSW,197,0.0,0.0,50,0.00,,,0.00,meteohub,2013-02-17 12:59:00,
2013-02-17 07:04:00,39.2,21.6,29.42,SSW,197,0.0,0.0,49,0.00,,,0.00,meteohub,2013-02-17 13:04:00,
2013-02-17 07:09:00,39.2,21.6,29.42,SSW,198,0.0,0.0,49,0.00,,,0.00,meteohub,2013-02-17 13:09:00,
2013-02-17 07:14:00,39.2,21.6,29.42,SSW,197,0.0,0.0,49,0.00,,,0.00,meteohub,2013-02-17 13:14:00,
2013-02-17 07:19:00,39.2,21.6,29.42,SSW,198,0.0,0.0,49,0.00,,,0.00,meteohub,2013-02-17 13:19:00,
2013-02-17 07:24:00,39.2,21.6,29.42,SSW,198,0.0,0.0,49,0.00,,,0.00,meteohub,2013-02-17 13:24:00,
2013-02-17 07:29:00,39.4,21.7,29.42,SSW,197,0.0,0.0,49,0.00,,,0.00,meteohub,2013-02-17 13:29:00,
2013-02-17 07:34:00,39.4,21.7,29.42,SSW,198,0.0,0.0,49,0.00,,,0.00,meteohub,2013-02-17 13:34:00,
2013-02-17 07:39:00,39.7,22.1,29.42,SSW,198,0.0,0.0,49,0.00,,,0.00,meteohub,2013-02-17 13:39:00,
2013-02-17 07:44:00,39.9,22.3,29.42,SSW,198,0.0,3.0,49,0.00,,,0.00,meteohub,2013-02-17 13:44:00,
2013-02-17 07:49:00,40.3,22.6,29.42,SSW,197,0.0,3.0,49,0.00,,,0.00,meteohub,2013-02-17 13:49:00,
2013-02-17 07:54:00,40.6,23.0,29.42,SSW,198,0.0,3.0,49,0.00,,,0.00,meteohub,2013-02-17 13:54:00,
2013-02-17 07:59:00,41.4,23.2,29.45,SSW,198,4.0,4.0,48,0.00,,,0.00,meteohub,2013-02-17 13:59:00,
2013-02-17 08:04:00,42.1,23.4,29.45,SW,216,0.0,3.0,47,0.00,,,0.00,meteohub,2013-02-17 14:04:00,
2013-02-17 08:09:00,43.0,23.2,29.45,SW,234,0.0,4.0,45,0.00,,,0.00,meteohub,2013-02-17 14:09:00,
2013-02-17 08:14:00,44.1,23.0,29.45,SSW,213,4.0,4.0,43,0.00,,,0.00,meteohub,2013-02-17 14:14:00,
2013-02-17 08:19:00,44.8,22.5,29.45,SW,221,2.0,4.0,41,0.00,,,0.00,meteohub,2013-02-17 14:19:00,
2013-02-17 08:24:00,45.7,22.8,29.45,SW,220,4.0,5.0,40,0.00,,,0.00,meteohub,2013-02-17 14:24:00,
2013-02-17 08:30:00,46.2,22.6,29.45,SW,217,3.0,5.0,39,0.00,,,0.00,meteohub,2013-02-17 14:30:00,
2013-02-17 08:35:00,46.9,22.6,29.45,WSW,243,0.0,5.0,38,0.00,,,0.00,meteohub,2013-02-17 14:35:00,
2013-02-17 08:40:00,47.3,22.3,29.45,SW,219,2.0,6.0,37,0.00,,,0.00,meteohub,2013-02-17 14:40:00,
2013-02-17 08:45:00,47.7,22.6,29.45,South,177,4.0,6.0,37,0.00,,,0.00,meteohub,2013-02-17 14:45:00,
2013-02-17 08:50:00,48.0,23.0,29.45,WSW,244,0.0,8.0,37,0.00,,,0.00,meteohub,2013-02-17 14:50:00,
2013-02-17 08:55:00,48.4,22.6,29.45,WSW,254,3.0,8.0,36,0.00,,,0.00,meteohub,2013-02-17 14:55:00,
2013-02-17 09:00:00,48.7,23.5,29.45,WSW,241,0.0,8.0,37,0.00,,,0.00,meteohub,2013-02-17 15:00:00,
2013-02-17 09:05:00,49.5,24.3,29.45,SW,219,0.0,7.0,37,0.00,,,0.00,meteohub,2013-02-17 15:05:00,
2013-02-17 09:10:00,49.8,23.9,29.45,SW,227,3.0,4.0,36,0.00,,,0.00,meteohub,2013-02-17 15:10:00,
2013-02-17 09:15:00,50.4,23.7,29.45,South,185,0.0,4.0,35,0.00,,,0.00,meteohub,2013-02-17 15:15:00,
2013-02-17 09:20:00,50.9,24.3,29.45,WSW,237,0.0,5.0,35,0.00,,,0.00,meteohub,2013-02-17 15:20:00,
2013-02-17 09:25:00,51.3,23.2,29.45,WSW,247,0.0,5.0,33,0.00,,,0.00,meteohub,2013-02-17 15:25:00,
2013-02-17 09:30:00,52.0,23.7,29.45,SSW,203,0.0,5.0,33,0.00,,,0.00,meteohub,2013-02-17 15:30:00,
2013-02-17 09:35:00,52.7,22.8,29.45,South,174,3.0,6.0,31,0.00,,,0.00,meteohub,2013-02-17 15:35:00,
2013-02-17 09:40:00,53.6,22.8,29.45,WSW,253,0.0,6.0,30,0.00,,,0.00,meteohub,2013-02-17 15:40:00,
2013-02-17 09:45:00,54.5,22.8,29.45,WSW,241,3.0,5.0,29,0.00,,,0.00,meteohub,2013-02-17 15:45:00,
2013-02-17 09:51:00,55.0,22.5,29.45,West,260,4.0,5.0,28,0.00,,,0.00,meteohub,2013-02-17 15:51:00,
2013-02-17 09:56:00,55.8,23.2,29.45,WSW,240,3.0,5.0,28,0.00,,,0.00,meteohub,2013-02-17 15:56:00,
2013-02-17 10:01:00,56.5,22.8,29.42,WSW,248,3.0,6.0,27,0.00,,,0.00,meteohub,2013-02-17 16:01:00,
2013-02-17 10:06:00,57.2,23.5,29.42,SSE,160,5.0,6.0,27,0.00,,,0.00,meteohub,2013-02-17 16:06:00,
2013-02-17 10:11:00,58.1,23.4,29.42,SSW,205,3.0,6.0,26,0.00,,,0.00,meteohub,2013-02-17 16:11:00,
2013-02-17 10:16:00,58.8,24.1,29.42,West,274,3.0,6.0,26,0.00,,,0.00,meteohub,2013-02-17 16:16:00,
2013-02-17 10:21:00,59.5,23.7,29.42,WNW,285,5.0,6.0,25,0.00,,,0.00,meteohub,2013-02-17 16:21:00,
2013-02-17 10:26:00,60.1,24.1,29.42,West,259,3.0,6.0,25,0.00,,,0.00,meteohub,2013-02-17 16:26:00,
2013-02-17 10:31:00,61.0,23.9,29.42,WSW,242,0.0,6.0,24,0.00,,,0.00,meteohub,2013-02-17 16:31:00,
2013-02-17 10:36:00,61.7,24.6,29.42,WSW,258,2.0,6.0,24,0.00,,,0.00,meteohub,2013-02-17 16:36:00,
2013-02-17 10:41:00,62.4,25.2,29.42,WSW,248,5.0,5.0,24,0.00,,,0.00,meteohub,2013-02-17 16:41:00,
2013-02-17 10:46:00,62.8,24.4,29.42,WSW,251,3.0,6.0,23,0.00,,,0.00,meteohub,2013-02-17 16:46:00,
2013-02-17 10:51:00,63.0,24.6,29.42,West,266,3.0,6.0,23,0.00,,,0.00,meteohub,2013-02-17 16:51:00,
2013-02-17 10:57:00,63.1,24.8,29.42,West,259,3.0,6.0,23,0.00,,,0.00,meteohub,2013-02-17 16:57:00,
2013-02-17 11:02:00,63.5,25.0,29.42,South,185,5.0,6.0,23,0.00,,,0.00,meteohub,2013-02-17 17:02:00,
2013-02-17 11:07:00,63.9,25.3,29.42,WSW,240,4.0,6.0,23,0.00,,,0.00,meteohub,2013-02-17 17:07:00,
2013-02-17 11:12:00,64.0,25.5,29.42,SSW,201,3.0,8.0,23,0.00,,,0.00,meteohub,2013-02-17 17:12:00,
2013-02-17 11:17:00,64.2,25.7,29.42,SSW,195,3.0,8.0,23,0.00,,,0.00,meteohub,2013-02-17 17:17:00,
2013-02-17 11:22:00,64.2,25.7,29.42,West,259,3.0,9.0,23,0.00,,,0.00,meteohub,2013-02-17 17:22:00,
2013-02-17 11:27:00,64.8,26.1,29.42,WSW,243,0.0,10.0,23,0.00,,,0.00,meteohub,2013-02-17 17:27:00,
2013-02-17 11:32:00,65.1,26.4,29.42,SSW,200,6.0,10.0,23,0.00,,,0.00,meteohub,2013-02-17 17:32:00,
2013-02-17 11:37:00,65.1,26.4,29.42,SSE,156,6.0,6.0,23,0.00,,,0.00,meteohub,2013-02-17 17:37:00,
2013-02-17 11:42:00,65.1,26.4,29.42,SSE,168,6.0,8.0,23,0.00,,,0.00,meteohub,2013-02-17 17:42:00,
2013-02-17 11:47:00,65.3,26.6,29.42,SW,228,8.0,8.0,23,0.00,,,0.00,meteohub,2013-02-17 17:47:00,
2013-02-17 11:52:00,65.3,23.2,29.42,SW,232,4.0,8.0,20,0.00,,,0.00,meteohub,2013-02-17 17:52:00,
2013-02-17 11:57:00,65.5,23.4,29.42,West,279,4.0,8.0,20,0.00,,,0.00,meteohub,2013-02-17 17:57:00,
2013-02-17 12:02:00,65.7,23.5,29.42,SW,229,4.0,8.0,20,0.00,,,0.00,meteohub,2013-02-17 18:02:00,
2013-02-17 12:07:00,65.8,23.7,29.42,SW,218,4.0,11.0,20,0.00,,,0.00,meteohub,2013-02-17 18:07:00,
2013-02-17 12:12:00,66.0,23.7,29.42,WNW,283,3.0,11.0,20,0.00,,,0.00,meteohub,2013-02-17 18:12:00,
2013-02-17 12:17:00,66.4,24.1,29.39,WSW,243,3.0,11.0,20,0.00,,,0.00,meteohub,2013-02-17 18:17:00,
2013-02-17 12:22:00,66.6,24.3,29.39,West,262,4.0,10.0,20,0.00,,,0.00,meteohub,2013-02-17 18:22:00,
2013-02-17 12:27:00,66.9,24.6,29.39,West,271,5.0,10.0,20,0.00,,,0.00,meteohub,2013-02-17 18:27:00,
2013-02-17 12:32:00,67.1,24.6,29.39,West,260,4.0,10.0,20,0.00,,,0.00,meteohub,2013-02-17 18:32:00,
2013-02-17 12:37:00,67.3,21.0,29.39,WNW,296,3.0,8.0,17,0.00,,,0.00,meteohub,2013-02-17 18:37:00,
2013-02-17 12:42:00,67.5,25.0,29.36,SSE,164,3.0,8.0,20,0.00,,,0.00,meteohub,2013-02-17 18:42:00,
2013-02-17 12:47:00,67.8,25.3,29.36,SW,221,0.0,6.0,20,0.00,,,0.00,meteohub,2013-02-17 18:47:00,
2013-02-17 12:52:00,68.4,25.7,29.36,WSW,244,7.0,8.0,20,0.00,,,0.00,meteohub,2013-02-17 18:52:00,
2013-02-17 12:57:00,68.5,25.9,29.36,WSW,258,3.0,9.0,20,0.00,,,0.00,meteohub,2013-02-17 18:57:00,
2013-02-17 13:02:00,68.5,25.9,29.36,WSW,256,3.0,9.0,20,0.00,,,0.00,meteohub,2013-02-17 19:02:00,
2013-02-17 13:07:00,68.9,22.3,29.36,SSE,150,6.0,9.0,17,0.00,,,0.00,meteohub,2013-02-17 19:07:00,
2013-02-17 13:13:00,69.1,22.5,29.36,WSW,253,5.0,7.0,17,0.00,,,0.00,meteohub,2013-02-17 19:13:00,
2013-02-17 13:18:00,69.6,22.8,29.36,West,269,4.0,7.0,17,0.00,,,0.00,meteohub,2013-02-17 19:18:00,
2013-02-17 13:23:00,70.0,23.2,29.36,South,187,0.0,7.0,17,0.00,,,0.00,meteohub,2013-02-17 19:23:00,
2013-02-17 13:28:00,70.0,23.2,29.34,South,181,5.0,6.0,17,0.00,,,0.00,meteohub,2013-02-17 19:28:00,
2013-02-17 13:33:00,69.8,23.0,29.34,SW,220,4.0,6.0,17,0.00,,,0.00,meteohub,2013-02-17 19:33:00,
2013-02-17 13:38:00,70.0,23.2,29.34,WSW,239,2.0,10.0,17,0.00,,,0.00,meteohub,2013-02-17 19:38:00,
2013-02-17 13:43:00,70.3,23.5,29.34,SSW,207,5.0,10.0,17,0.00,,,0.00,meteohub,2013-02-17 19:43:00,
2013-02-17 13:48:00,70.2,23.4,29.34,WSW,238,4.0,10.0,17,0.00,,,0.00,meteohub,2013-02-17 19:48:00,
2013-02-17 13:53:00,70.7,23.7,29.34,SW,231,4.0,8.0,17,0.00,,,0.00,meteohub,2013-02-17 19:53:00,
2013-02-17 13:58:00,71.1,24.1,29.34,West,261,4.0,8.0,17,0.00,,,0.00,meteohub,2013-02-17 19:58:00,
2013-02-17 14:03:00,71.4,24.3,29.34,SSW,196,8.0,8.0,17,0.00,,,0.00,meteohub,2013-02-17 20:03:00,
2013-02-17 14:09:00,71.6,23.0,29.34,WNW,288,3.0,8.0,16,0.00,,,0.00,meteohub,2013-02-17 20:09:00,
2013-02-17 14:14:00,71.4,24.3,29.31,SW,216,5.0,8.0,17,0.00,,,0.00,meteohub,2013-02-17 20:14:00,
2013-02-17 14:19:00,72.0,23.4,29.31,SSW,196,4.0,8.0,16,0.00,,,0.00,meteohub,2013-02-17 20:19:00,
2013-02-17 14:24:00,72.1,23.5,29.31,SW,232,3.0,8.0,16,0.00,,,0.00,meteohub,2013-02-17 20:24:00,
2013-02-17 14:29:00,72.0,23.4,29.31,SW,227,7.0,9.0,16,0.00,,,0.00,meteohub,2013-02-17 20:29:00,
2013-02-17 14:34:00,71.8,23.2,29.31,SW,222,4.0,10.0,16,0.00,,,0.00,meteohub,2013-02-17 20:34:00,
2013-02-17 14:39:00,71.4,24.3,29.31,West,273,2.0,11.0,17,0.00,,,0.00,meteohub,2013-02-17 20:39:00,
2013-02-17 14:44:00,71.1,24.1,29.31,WSW,247,3.0,11.0,17,0.00,,,0.00,meteohub,2013-02-17 20:44:00,
2013-02-17 14:49:00,71.1,19.4,29.31,SSW,194,5.0,11.0,14,0.00,,,0.00,meteohub,2013-02-17 20:49:00,
2013-02-17 14:54:00,70.9,19.2,29.31,WSW,246,6.0,10.0,14,0.00,,,0.00,meteohub,2013-02-17 20:54:00,
2013-02-17 14:59:00,70.9,19.2,29.31,South,175,9.0,10.0,14,0.00,,,0.00,meteohub,2013-02-17 20:59:00,
2013-02-17 15:05:00,70.9,19.2,29.31,WNW,284,3.0,10.0,14,0.00,,,0.00,meteohub,2013-02-17 21:05:00,
2013-02-17 15:10:00,70.9,19.2,29.31,WSW,243,4.0,9.0,14,0.00,,,0.00,meteohub,2013-02-17 21:10:00,
2013-02-17 15:15:00,70.9,19.2,29.28,WSW,239,3.0,9.0,14,0.00,,,0.00,meteohub,2013-02-17 21:15:00,
2013-02-17 15:20:00,71.1,19.4,29.28,SSW,207,3.0,9.0,14,0.00,,,0.00,meteohub,2013-02-17 21:20:00,
2013-02-17 15:25:00,71.1,19.4,29.28,South,173,4.0,9.0,14,0.00,,,0.00,meteohub,2013-02-17 21:25:00,
2013-02-17 15:30:00,71.1,19.4,29.28,WSW,252,3.0,9.0,14,0.00,,,0.00,meteohub,2013-02-17 21:30:00,
2013-02-17 15:35:00,71.1,19.4,29.28,WSW,237,2.0,9.0,14,0.00,,,0.00,meteohub,2013-02-17 21:35:00,
2013-02-17 15:40:00,71.1,19.4,29.28,SSW,209,8.0,11.0,14,0.00,,,0.00,meteohub,2013-02-17 21:40:00,
2013-02-17 15:45:00,70.9,19.2,29.28,SW,227,3.0,11.0,14,0.00,,,0.00,meteohub,2013-02-17 21:45:00,
2013-02-17 15:50:00,70.9,19.2,29.28,SW,222,4.0,11.0,14,0.00,,,0.00,meteohub,2013-02-17 21:50:00,
2013-02-17 15:55:00,70.9,19.2,29.28,South,171,5.0,11.0,14,0.00,,,0.00,meteohub,2013-02-17 21:55:00,
2013-02-17 16:00:00,71.1,19.4,29.28,WSW,257,3.0,11.0,14,0.00,,,0.00,meteohub,2013-02-17 22:00:00,
2013-02-17 16:05:00,70.9,19.2,29.28,SSW,210,6.0,10.0,14,0.00,,,0.00,meteohub,2013-02-17 22:05:00,
2013-02-17 16:10:00,70.7,19.2,29.28,SSW,199,8.0,11.0,14,0.00,,,0.00,meteohub,2013-02-17 22:10:00,
2013-02-17 16:15:00,70.7,19.2,29.28,WSW,256,3.0,11.0,14,0.00,,,0.00,meteohub,2013-02-17 22:15:00,
2013-02-17 16:21:00,70.5,19.0,29.28,WNW,303,3.0,11.0,14,0.00,,,0.00,meteohub,2013-02-17 22:21:00,
2013-02-17 16:26:00,70.3,23.5,29.28,WSW,254,6.0,9.0,17,0.00,,,0.00,meteohub,2013-02-17 22:26:00,
2013-02-17 16:31:00,70.2,23.4,29.28,SW,214,6.0,9.0,17,0.00,,,0.00,meteohub,2013-02-17 22:31:00,
2013-02-17 16:36:00,70.2,23.4,29.28,SSE,161,6.0,11.0,17,0.00,,,0.00,meteohub,2013-02-17 22:36:00,
2013-02-17 16:41:00,70.0,23.2,29.28,SW,224,8.0,11.0,17,0.00,,,0.00,meteohub,2013-02-17 22:41:00,
2013-02-17 16:46:00,69.8,23.0,29.28,SSW,207,6.0,11.0,17,0.00,,,0.00,meteohub,2013-02-17 22:46:00,
2013-02-17 16:51:00,69.6,22.8,29.28,West,275,8.0,11.0,17,0.00,,,0.00,meteohub,2013-02-17 22:51:00,
2013-02-17 16:56:00,69.6,22.8,29.28,WSW,240,4.0,12.0,17,0.00,,,0.00,meteohub,2013-02-17 22:56:00,
2013-02-17 17:01:00,69.4,22.6,29.25,SW,229,6.0,12.0,17,0.00,,,0.00,meteohub,2013-02-17 23:01:00,
2013-02-17 17:07:00,69.3,22.6,29.25,SSE,159,8.0,12.0,17,0.00,,,0.00,meteohub,2013-02-17 23:07:00,
2013-02-17 17:12:00,69.1,22.5,29.25,SW,217,8.0,11.0,17,0.00,,,0.00,meteohub,2013-02-17 23:12:00,
2013-02-17 17:17:00,68.7,22.1,29.25,WSW,250,6.0,10.0,17,0.00,,,0.00,meteohub,2013-02-17 23:17:00,
2013-02-17 17:22:00,68.5,21.9,29.25,SW,234,5.0,9.0,17,0.00,,,0.00,meteohub,2013-02-17 23:22:00,
2013-02-17 17:27:00,68.4,21.9,29.25,WSW,255,6.0,9.0,17,0.00,,,0.00,meteohub,2013-02-17 23:27:00,
2013-02-17 17:32:00,68.2,21.7,29.25,WSW,237,4.0,9.0,17,0.00,,,0.00,meteohub,2013-02-17 23:32:00,
2013-02-17 17:37:00,67.8,21.4,29.25,ESE,115,6.0,10.0,17,0.00,,,0.00,meteohub,2013-02-17 23:37:00,
2013-02-17 17:42:00,67.6,21.2,29.25,South,179,6.0,10.0,17,0.00,,,0.00,meteohub,2013-02-17 23:42:00,
2013-02-17 17:47:00,67.5,21.2,29.25,SW,216,5.0,10.0,17,0.00,,,0.00,meteohub,2013-02-17 23:47:00,
2013-02-17 17:52:00,67.1,20.8,29.25,SSE,157,4.0,10.0,17,0.00,,,0.00,meteohub,2013-02-17 23:52:00,
2013-02-17 17:57:00,66.9,20.7,29.25,South,182,5.0,10.0,17,0.00,,,0.00,meteohub,2013-02-17 23:57:00,
2013-02-17 18:02:00,66.7,20.5,29.25,SW,214,3.0,10.0,17,0.00,,,0.00,meteohub,2013-02-18 00:02:00,
2013-02-17 18:07:00,66.4,20.3,29.25,WSW,245,4.0,9.0,17,0.00,,,0.00,meteohub,2013-02-18 00:07:00,
2013-02-17 18:12:00,66.4,20.3,29.25,WSW,242,10.0,10.0,17,0.00,,,0.00,meteohub,2013-02-18 00:12:00,
2013-02-17 18:17:00,66.2,20.1,29.25,South,171,6.0,10.0,17,0.00,,,0.00,meteohub,2013-02-18 00:17:00,
2013-02-17 18:22:00,66.0,21.2,29.25,SSW,213,4.0,10.0,18,0.00,,,0.00,meteohub,2013-02-18 00:22:00,
2013-02-17 18:27:00,65.8,21.2,29.25,SW,217,3.0,10.0,18,0.00,,,0.00,meteohub,2013-02-18 00:27:00,
2013-02-17 18:32:00,65.8,21.2,29.25,WSW,254,3.0,10.0,18,0.00,,,0.00,meteohub,2013-02-18 00:32:00,
2013-02-17 18:37:00,65.5,20.8,29.25,SSW,205,6.0,10.0,18,0.00,,,0.00,meteohub,2013-02-18 00:37:00,
2013-02-17 18:42:00,65.5,20.8,29.25,SW,226,4.0,9.0,18,0.00,,,0.00,meteohub,2013-02-18 00:42:00,
2013-02-17 18:47:00,65.3,20.7,29.25,South,180,3.0,9.0,18,0.00,,,0.00,meteohub,2013-02-18 00:47:00,
2013-02-17 18:52:00,65.1,20.5,29.25,SSW,199,5.0,9.0,18,0.00,,,0.00,meteohub,2013-02-18 00:52:00,
2013-02-17 18:57:00,64.9,20.5,29.25,SW,223,0.0,8.0,18,0.00,,,0.00,meteohub,2013-02-18 00:57:00,
2013-02-17 19:02:00,64.8,20.3,29.25,SW,228,4.0,11.0,18,0.00,,,0.00,meteohub,2013-02-18 01:02:00,
2013-02-17 19:07:00,64.6,20.1,29.25,WSW,237,3.0,12.0,18,0.00,,,0.00,meteohub,2013-02-18 01:07:00,
2013-02-17 19:12:00,64.4,19.9,29.25,West,264,10.0,12.0,18,0.00,,,0.00,meteohub,2013-02-18 01:12:00,
2013-02-17 19:17:00,64.2,19.8,29.28,SSW,210,4.0,10.0,18,0.00,,,0.00,meteohub,2013-02-18 01:17:00,
2013-02-17 19:22:00,64.2,19.8,29.28,SSW,212,3.0,10.0,18,0.00,,,0.00,meteohub,2013-02-18 01:22:00,
2013-02-17 19:27:00,64.0,23.4,29.28,SE,142,4.0,10.0,21,0.00,,,0.00,meteohub,2013-02-18 01:27:00,
2013-02-17 19:32:00,63.9,23.2,29.25,SW,217,2.0,10.0,21,0.00,,,0.00,meteohub,2013-02-18 01:32:00,
2013-02-17 19:37:00,63.7,23.0,29.25,WSW,238,3.0,11.0,21,0.00,,,0.00,meteohub,2013-02-18 01:37:00,
2013-02-17 19:42:00,63.5,22.8,29.25,South,186,4.0,11.0,21,0.00,,,0.00,meteohub,2013-02-18 01:42:00,
2013-02-17 19:47:00,63.1,22.6,29.25,SSW,211,4.0,6.0,21,0.00,,,0.00,meteohub,2013-02-18 01:47:00,
2013-02-17 19:52:00,63.0,22.5,29.25,SW,217,3.0,6.0,21,0.00,,,0.00,meteohub,2013-02-18 01:52:00,
2013-02-17 19:58:00,62.8,22.3,29.25,SSW,208,8.0,8.0,21,0.00,,,0.00,meteohub,2013-02-18 01:58:00,
2013-02-17 20:03:00,62.6,22.1,29.25,SE,141,3.0,6.0,21,0.00,,,0.00,meteohub,2013-02-18 02:03:00,
2013-02-17 20:08:00,62.6,22.1,29.25,South,178,4.0,8.0,21,0.00,,,0.00,meteohub,2013-02-18 02:08:00,
2013-02-17 20:13:00,62.4,21.9,29.25,SW,234,3.0,9.0,21,0.00,,,0.00,meteohub,2013-02-18 02:13:00,
2013-02-17 20:18:00,62.2,21.7,29.25,SW,222,3.0,9.0,21,0.00,,,0.00,meteohub,2013-02-18 02:18:00,
2013-02-17 20:23:00,62.2,25.0,29.25,SW,223,4.0,9.0,24,0.00,,,0.00,meteohub,2013-02-18 02:23:00,
2013-02-17 20:28:00,61.9,24.6,29.25,SSW,208,4.0,6.0,24,0.00,,,0.00,meteohub,2013-02-18 02:28:00,
2013-02-17 20:33:00,61.9,24.6,29.25,SW,234,4.0,7.0,24,0.00,,,0.00,meteohub,2013-02-18 02:33:00,
2013-02-17 20:38:00,61.7,24.6,29.25,SSW,198,0.0,7.0,24,0.00,,,0.00,meteohub,2013-02-18 02:38:00,
2013-02-17 20:43:00,61.7,24.6,29.25,SSE,158,3.0,7.0,24,0.00,,,0.00,meteohub,2013-02-18 02:43:00,
2013-02-17 20:48:00,61.5,24.4,29.25,SSW,194,2.0,8.0,24,0.00,,,0.00,meteohub,2013-02-18 02:48:00,
2013-02-17 20:53:00,61.3,24.3,29.25,South,187,6.0,8.0,24,0.00,,,0.00,meteohub,2013-02-18 02:53:00,
2013-02-17 20:58:00,61.3,24.3,29.28,South,183,3.0,8.0,24,0.00,,,0.00,meteohub,2013-02-18 02:58:00,
2013-02-17 21:03:00,61.3,24.3,29.28,West,260,5.0,8.0,24,0.00,,,0.00,meteohub,2013-02-18 03:03:00,
2013-02-17 21:08:00,61.3,24.3,29.28,South,175,7.0,8.0,24,0.00,,,0.00,meteohub,2013-02-18 03:08:00,
2013-02-17 21:13:00,61.3,24.3,29.28,SW,233,4.0,8.0,24,0.00,,,0.00,meteohub,2013-02-18 03:13:00,
2013-02-17 21:18:00,61.3,24.3,29.28,WSW,238,4.0,10.0,24,0.00,,,0.00,meteohub,2013-02-18 03:18:00,
2013-02-17 21:24:00,61.3,25.2,29.28,SSW,212,3.0,10.0,25,0.00,,,0.00,meteohub,2013-02-18 03:24:00,
2013-02-17 21:29:00,61.2,25.0,29.28,SW,223,6.0,9.0,25,0.00,,,0.00,meteohub,2013-02-18 03:29:00,
2013-02-17 21:34:00,61.2,25.0,29.28,SSW,213,4.0,11.0,25,0.00,,,0.00,meteohub,2013-02-18 03:34:00,
2013-02-17 21:39:00,61.2,26.1,29.28,West,259,6.0,11.0,26,0.00,,,0.00,meteohub,2013-02-18 03:39:00,
2013-02-17 21:44:00,61.0,25.9,29.25,South,185,8.0,11.0,26,0.00,,,0.00,meteohub,2013-02-18 03:44:00,
2013-02-17 21:49:00,60.8,26.6,29.25,SSW,209,5.0,11.0,27,0.00,,,0.00,meteohub,2013-02-18 03:49:00,
2013-02-17 21:54:00,60.6,27.3,29.25,SW,232,6.0,10.0,28,0.00,,,0.00,meteohub,2013-02-18 03:54:00,
2013-02-17 21:59:00,60.4,27.1,29.28,West,276,4.0,10.0,28,0.00,,,0.00,meteohub,2013-02-18 03:59:00,
2013-02-17 22:04:00,60.4,28.0,29.28,WSW,247,3.0,9.0,29,0.00,,,0.00,meteohub,2013-02-18 04:04:00,
2013-02-17 22:09:00,60.4,28.9,29.28,SSE,163,8.0,9.0,30,0.00,,,0.00,meteohub,2013-02-18 04:09:00,
2013-02-17 22:14:00,60.4,29.7,29.28,SW,218,2.0,9.0,31,0.00,,,0.00,meteohub,2013-02-18 04:14:00,
2013-02-17 22:19:00,60.3,30.2,29.28,South,180,5.0,10.0,32,0.00,,,0.00,meteohub,2013-02-18 04:19:00,
2013-02-17 22:25:00,60.3,30.2,29.28,SW,232,5.0,10.0,32,0.00,,,0.00,meteohub,2013-02-18 04:25:00,
2013-02-17 22:30:00,60.1,30.9,29.28,South,187,3.0,9.0,33,0.00,,,0.00,meteohub,2013-02-18 04:30:00,
2013-02-17 22:35:00,60.1,31.6,29.28,SSE,166,4.0,10.0,34,0.00,,,0.00,meteohub,2013-02-18 04:35:00,
2013-02-17 22:40:00,60.1,31.6,29.28,WSW,241,7.0,11.0,34,0.00,,,0.00,meteohub,2013-02-18 04:40:00,
2013-02-17 22:45:00,59.9,31.5,29.28,West,267,5.0,15.0,34,0.00,,,0.00,meteohub,2013-02-18 04:45:00,
2013-02-17 22:50:00,59.7,31.3,29.28,SSE,159,2.0,15.0,34,0.00,,,0.00,meteohub,2013-02-18 04:50:00,
2013-02-17 22:55:00,59.5,31.1,29.28,SW,223,4.0,11.0,34,0.00,,,0.00,meteohub,2013-02-18 04:55:00,
2013-02-17 23:00:00,59.4,30.9,29.28,SW,219,3.0,9.0,34,0.00,,,0.00,meteohub,2013-02-18 05:00:00,
2013-02-17 23:01:00,59.4,30.9,29.28,WSW,243,6.0,9.0,34,0.00,,,0.00,meteohub,2013-02-18 05:01:00,
2013-02-17 23:07:00,59.4,31.6,29.28,SW,225,4.0,9.0,35,0.00,,,0.00,meteohub,2013-02-18 05:07:00,
2013-02-17 23:12:00,59.4,31.6,29.28,SSW,196,5.0,10.0,35,0.00,,,0.00,meteohub,2013-02-18 05:12:00,
2013-02-17 23:17:00,59.2,31.5,29.28,WSW,248,4.0,11.0,35,0.00,,,0.00,meteohub,2013-02-18 05:17:00,
2013-02-17 23:22:00,59.2,31.5,29.28,SW,224,3.0,11.0,35,0.00,,,0.00,meteohub,2013-02-18 05:22:00,
2013-02-17 23:27:00,59.0,31.5,29.28,SW,227,4.0,11.0,35,0.00,,,0.00,meteohub,2013-02-18 05:27:00,
2013-02-17 23:32:00,58.8,32.0,29.28,SW,235,3.0,10.0,36,0.00,,,0.00,meteohub,2013-02-18 05:32:00,
2013-02-17 23:37:00,58.8,32.0,29.28,West,269,4.0,10.0,36,0.00,,,0.00,meteohub,2013-02-18 05:37:00,
2013-02-17 23:42:00,58.6,32.4,29.28,WSW,242,4.0,8.0,37,0.00,,,0.00,meteohub,2013-02-18 05:42:00,
2013-02-17 23:47:00,58.6,32.4,29.25,SW,233,10.0,10.0,37,0.00,,,0.00,meteohub,2013-02-18 05:47:00,
2013-02-17 23:52:00,58.5,32.4,29.25,SW,233,8.0,10.0,37,0.00,,,0.00,meteohub,2013-02-18 05:52:00,
2013-02-17 23:57:00,58.5,32.4,29.25,SE,142,5.0,11.0,37,0.00,,,0.00,meteohub,2013-02-18 05:57:00,